Year,Month,Day,Hour,Minute,Value (Times are PST for windgust in km/hr)
2018,01,17,00,00,9.60
2018,01,17,00,01,9.60
2018,01,17,00,02,6.40
2018,01,17,00,03,4.80
2018,01,17,00,04,4.80
2018,01,17,00,05,6.40
2018,01,17,00,06,9.60
2018,01,17,00,07,6.40
2018,01,17,00,08,8.10
2018,01,17,00,09,6.40
2018,01,17,00,10,6.40
2018,01,17,00,11,6.40
2018,01,17,00,12,6.40
2018,01,17,00,13,8.10
2018,01,17,00,14,8.10
2018,01,17,00,15,9.60
2018,01,17,00,16,11.30
2018,01,17,00,17,8.10
2018,01,17,00,18,6.40
2018,01,17,00,19,8.10
2018,01,17,00,20,8.10
2018,01,17,00,21,8.10
2018,01,17,00,22,8.10
2018,01,17,00,23,4.80
2018,01,17,00,24,3.20
2018,01,17,00,25,3.20
2018,01,17,00,26,3.20
2018,01,17,00,27,4.80
2018,01,17,00,28,6.40
2018,01,17,00,29,6.40
2018,01,17,00,30,8.10
2018,01,17,00,31,9.60
2018,01,17,00,32,8.10
2018,01,17,00,33,8.10
2018,01,17,00,34,6.40
2018,01,17,00,35,4.80
2018,01,17,00,36,4.80
2018,01,17,00,37,6.40
2018,01,17,00,38,6.40
2018,01,17,00,39,8.10
2018,01,17,00,40,4.80
2018,01,17,00,41,4.80
2018,01,17,00,42,4.80
2018,01,17,00,43,6.40
2018,01,17,00,44,6.40
2018,01,17,00,45,4.80
2018,01,17,00,46,4.80
2018,01,17,00,47,3.20
2018,01,17,00,48,6.40
2018,01,17,00,49,8.10
2018,01,17,00,50,8.10
2018,01,17,00,51,8.10
2018,01,17,00,52,9.60
2018,01,17,00,53,8.10
2018,01,17,00,54,6.40
2018,01,17,00,55,8.10
2018,01,17,00,56,9.60
2018,01,17,00,57,9.60
2018,01,17,00,58,9.60
2018,01,17,00,59,8.10
2018,01,17,01,00,8.10
2018,01,17,01,01,6.40
2018,01,17,01,02,4.80
2018,01,17,01,03,3.20
2018,01,17,01,04,6.40
2018,01,17,01,05,4.80
2018,01,17,01,06,6.40
2018,01,17,01,07,4.80
2018,01,17,01,08,4.80
2018,01,17,01,09,6.40
2018,01,17,01,10,6.40
2018,01,17,01,11,6.40
2018,01,17,01,12,6.40
2018,01,17,01,13,6.40
2018,01,17,01,14,4.80
2018,01,17,01,15,6.40
2018,01,17,01,16,6.40
2018,01,17,01,17,6.40
2018,01,17,01,18,6.40
2018,01,17,01,19,6.40
2018,01,17,01,20,4.80
2018,01,17,01,21,6.40
2018,01,17,01,22,8.10
2018,01,17,01,23,6.40
2018,01,17,01,24,4.80
2018,01,17,01,25,4.80
2018,01,17,01,26,6.40
2018,01,17,01,27,9.60
2018,01,17,01,28,8.10
2018,01,17,01,29,9.60
2018,01,17,01,30,9.60
2018,01,17,01,31,12.90
2018,01,17,01,32,11.30
2018,01,17,01,33,11.30
2018,01,17,01,34,9.60
2018,01,17,01,35,6.40
2018,01,17,01,36,8.10
2018,01,17,01,37,8.10
2018,01,17,01,38,8.10
2018,01,17,01,39,9.60
2018,01,17,01,40,9.60
2018,01,17,01,41,6.40
2018,01,17,01,42,6.40
2018,01,17,01,43,9.60
2018,01,17,01,44,9.60
2018,01,17,01,45,8.10
2018,01,17,01,46,8.10
2018,01,17,01,47,9.60
2018,01,17,01,48,9.60
2018,01,17,01,49,8.10
2018,01,17,01,50,6.40
2018,01,17,01,51,4.80
2018,01,17,01,52,9.60
2018,01,17,01,53,9.60
2018,01,17,01,54,11.30
2018,01,17,01,55,12.90
2018,01,17,01,56,11.30
2018,01,17,01,57,9.60
2018,01,17,01,58,9.60
2018,01,17,01,59,9.60
2018,01,17,02,00,9.60
2018,01,17,02,01,8.10
2018,01,17,02,02,6.40
2018,01,17,02,03,6.40
2018,01,17,02,04,3.20
2018,01,17,02,05,1.60
2018,01,17,02,06,4.80
2018,01,17,02,07,4.80
2018,01,17,02,08,8.10
2018,01,17,02,09,8.10
2018,01,17,02,10,8.10
2018,01,17,02,11,8.10
2018,01,17,02,12,9.60
2018,01,17,02,13,8.10
2018,01,17,02,14,8.10
2018,01,17,02,15,6.40
2018,01,17,02,16,8.10
2018,01,17,02,17,9.60
2018,01,17,02,18,9.60
2018,01,17,02,19,9.60
2018,01,17,02,20,11.30
2018,01,17,02,21,8.10
2018,01,17,02,22,1.60
2018,01,17,02,25,3.20
2018,01,17,02,26,6.40
2018,01,17,02,27,6.40
2018,01,17,02,28,6.40
2018,01,17,02,29,8.10
2018,01,17,02,30,11.30
2018,01,17,02,31,9.60
2018,01,17,02,32,9.60
2018,01,17,02,33,11.30
2018,01,17,02,34,8.10
2018,01,17,02,35,9.60
2018,01,17,02,36,11.30
2018,01,17,02,37,9.60
2018,01,17,02,38,6.40
2018,01,17,02,39,6.40
2018,01,17,02,41,3.20
2018,01,17,02,42,1.60
2018,01,17,02,43,4.80
2018,01,17,02,44,6.40
2018,01,17,02,45,8.10
2018,01,17,02,46,6.40
2018,01,17,02,47,6.40
2018,01,17,02,48,4.80
2018,01,17,02,49,6.40
2018,01,17,02,50,6.40
2018,01,17,02,51,6.40
2018,01,17,02,52,6.40
2018,01,17,02,53,6.40
2018,01,17,02,54,8.10
2018,01,17,02,55,6.40
2018,01,17,02,56,6.40
2018,01,17,02,57,4.80
2018,01,17,02,58,6.40
2018,01,17,02,59,4.80
2018,01,17,03,00,4.80
2018,01,17,03,01,4.80
2018,01,17,03,02,3.20
2018,01,17,03,04,1.60
2018,01,17,03,07,1.60
2018,01,17,03,08,1.60
2018,01,17,03,09,1.60
2018,01,17,03,10,3.20
2018,01,17,03,11,1.60
2018,01,17,03,12,1.60
2018,01,17,03,13,1.60
2018,01,17,03,16,3.20
2018,01,17,03,17,4.80
2018,01,17,03,18,4.80
2018,01,17,03,19,6.40
2018,01,17,03,20,4.80
2018,01,17,03,21,4.80
2018,01,17,03,22,4.80
2018,01,17,03,23,8.10
2018,01,17,03,24,8.10
2018,01,17,03,25,4.80
2018,01,17,03,26,3.20
2018,01,17,03,27,4.80
2018,01,17,03,28,4.80
2018,01,17,03,29,6.40
2018,01,17,03,30,3.20
2018,01,17,03,31,1.60
2018,01,17,03,32,3.20
2018,01,17,03,33,3.20
2018,01,17,03,34,4.80
2018,01,17,03,35,6.40
2018,01,17,03,36,6.40
2018,01,17,03,37,4.80
2018,01,17,03,38,3.20
2018,01,17,03,39,3.20
2018,01,17,03,40,6.40
2018,01,17,03,41,4.80
2018,01,17,03,42,6.40
2018,01,17,03,43,4.80
2018,01,17,03,44,8.10
2018,01,17,03,45,4.80
2018,01,17,03,47,1.60
2018,01,17,03,48,1.60
2018,01,17,03,49,3.20
2018,01,17,03,50,3.20
2018,01,17,03,51,4.80
2018,01,17,03,52,3.20
2018,01,17,03,53,4.80
2018,01,17,03,54,8.10
2018,01,17,03,55,8.10
2018,01,17,03,56,4.80
2018,01,17,03,57,4.80
2018,01,17,03,58,6.40
2018,01,17,03,59,8.10
2018,01,17,04,00,8.10
2018,01,17,04,01,8.10
2018,01,17,04,02,4.80
2018,01,17,04,03,4.80
2018,01,17,04,04,4.80
2018,01,17,04,05,8.10
2018,01,17,04,06,8.10
2018,01,17,04,07,6.40
2018,01,17,04,08,6.40
2018,01,17,04,09,4.80
2018,01,17,04,10,3.20
2018,01,17,04,13,1.60
2018,01,17,04,14,4.80
2018,01,17,04,15,4.80
2018,01,17,04,16,4.80
2018,01,17,04,17,4.80
2018,01,17,04,18,4.80
2018,01,17,04,19,4.80
2018,01,17,04,20,3.20
2018,01,17,04,21,6.40
2018,01,17,04,22,4.80
2018,01,17,04,23,3.20
2018,01,17,04,24,1.60
2018,01,17,04,25,1.60
2018,01,17,04,26,8.10
2018,01,17,04,27,6.40
2018,01,17,04,28,6.40
2018,01,17,04,29,8.10
2018,01,17,04,30,3.20
2018,01,17,04,31,3.20
2018,01,17,04,34,3.20
2018,01,17,04,35,6.40
2018,01,17,04,36,4.80
2018,01,17,04,37,8.10
2018,01,17,04,38,8.10
2018,01,17,04,39,4.80
2018,01,17,04,40,4.80
2018,01,17,04,41,1.60
2018,01,17,04,42,6.40
2018,01,17,04,43,6.40
2018,01,17,04,44,3.20
2018,01,17,04,45,1.60
2018,01,17,04,46,3.20
2018,01,17,04,47,1.60
2018,01,17,04,48,1.60
2018,01,17,04,50,1.60
2018,01,17,04,51,1.60
2018,01,17,04,54,3.20
2018,01,17,04,55,4.80
2018,01,17,04,56,6.40
2018,01,17,04,57,4.80
2018,01,17,04,58,1.60
2018,01,17,04,59,1.60
2018,01,17,05,00,3.20
2018,01,17,05,01,1.60
2018,01,17,05,02,1.60
2018,01,17,05,03,1.60
2018,01,17,05,04,3.20
2018,01,17,05,05,3.20
2018,01,17,05,06,1.60
2018,01,17,05,07,3.20
2018,01,17,05,08,3.20
2018,01,17,05,09,3.20
2018,01,17,05,10,4.80
2018,01,17,05,11,3.20
2018,01,17,05,13,1.60
2018,01,17,05,14,1.60
2018,01,17,05,15,1.60
2018,01,17,05,16,1.60
2018,01,17,05,17,1.60
2018,01,17,05,19,4.80
2018,01,17,05,20,4.80
2018,01,17,05,21,3.20
2018,01,17,05,22,3.20
2018,01,17,05,23,3.20
2018,01,17,05,24,3.20
2018,01,17,05,25,4.80
2018,01,17,05,26,4.80
2018,01,17,05,27,4.80
2018,01,17,05,28,1.60
2018,01,17,05,29,3.20
2018,01,17,05,30,6.40
2018,01,17,05,31,4.80
2018,01,17,05,33,3.20
2018,01,17,05,34,1.60
2018,01,17,05,35,1.60
2018,01,17,05,36,3.20
2018,01,17,05,37,1.60
2018,01,17,05,38,3.20
2018,01,17,05,39,3.20
2018,01,17,05,41,1.60
2018,01,17,05,42,3.20
2018,01,17,05,43,3.20
2018,01,17,05,44,3.20
2018,01,17,05,45,3.20
2018,01,17,05,46,6.40
2018,01,17,05,47,1.60
2018,01,17,05,48,3.20
2018,01,17,05,49,1.60
2018,01,17,05,50,6.40
2018,01,17,05,51,11.30
2018,01,17,05,52,11.30
2018,01,17,05,53,11.30
2018,01,17,05,54,8.10
2018,01,17,05,55,4.80
2018,01,17,05,56,4.80
2018,01,17,05,57,1.60
2018,01,17,05,58,3.20
2018,01,17,05,59,1.60
2018,01,17,06,01,1.60
2018,01,17,06,04,1.60
2018,01,17,06,05,3.20
2018,01,17,06,06,3.20
2018,01,17,06,07,3.20
2018,01,17,06,08,3.20
2018,01,17,06,09,1.60
2018,01,17,06,10,1.60
2018,01,17,06,11,3.20
2018,01,17,06,12,4.80
2018,01,17,06,13,4.80
2018,01,17,06,14,1.60
2018,01,17,06,15,4.80
2018,01,17,06,16,8.10
2018,01,17,06,17,3.20
2018,01,17,06,18,8.10
2018,01,17,06,19,4.80
2018,01,17,06,20,3.20
2018,01,17,06,21,4.80
2018,01,17,06,22,3.20
2018,01,17,06,23,3.20
2018,01,17,06,24,3.20
2018,01,17,06,25,4.80
2018,01,17,06,26,9.60
2018,01,17,06,27,4.80
2018,01,17,06,28,1.60
2018,01,17,06,29,3.20
2018,01,17,06,30,4.80
2018,01,17,06,31,8.10
2018,01,17,06,32,8.10
2018,01,17,06,33,1.60
2018,01,17,06,34,1.60
2018,01,17,06,39,1.60
2018,01,17,06,40,1.60
2018,01,17,06,42,3.20
2018,01,17,06,43,1.60
2018,01,17,06,44,1.60
2018,01,17,06,45,1.60
2018,01,17,06,46,1.60
2018,01,17,06,47,1.60
2018,01,17,06,49,1.60
2018,01,17,06,50,4.80
2018,01,17,06,51,4.80
2018,01,17,06,52,3.20
2018,01,17,06,53,1.60
2018,01,17,06,54,1.60
2018,01,17,06,58,3.20
2018,01,17,06,59,3.20
2018,01,17,07,00,1.60
2018,01,17,07,02,1.60
2018,01,17,07,03,4.80
2018,01,17,07,04,6.40
2018,01,17,07,05,8.10
2018,01,17,07,06,8.10
2018,01,17,07,07,3.20
2018,01,17,07,08,3.20
2018,01,17,07,09,3.20
2018,01,17,07,10,1.60
2018,01,17,07,14,1.60
2018,01,17,07,15,1.60
2018,01,17,07,16,1.60
2018,01,17,07,17,6.40
2018,01,17,07,18,6.40
2018,01,17,07,19,6.40
2018,01,17,07,20,9.60
2018,01,17,07,21,9.60
2018,01,17,07,22,4.80
2018,01,17,07,23,6.40
2018,01,17,07,24,6.40
2018,01,17,07,25,6.40
2018,01,17,07,26,6.40
2018,01,17,07,27,6.40
2018,01,17,07,28,6.40
2018,01,17,07,29,8.10
2018,01,17,07,30,11.30
2018,01,17,07,31,11.30
2018,01,17,07,32,9.60
2018,01,17,07,33,8.10
2018,01,17,07,34,4.80
2018,01,17,07,35,4.80
2018,01,17,07,36,6.40
2018,01,17,07,37,6.40
2018,01,17,07,38,3.20
2018,01,17,07,39,1.60
2018,01,17,07,40,4.80
2018,01,17,07,41,8.10
2018,01,17,07,42,4.80
2018,01,17,07,43,4.80
2018,01,17,07,44,4.80
2018,01,17,07,45,11.30
2018,01,17,07,46,11.30
2018,01,17,07,47,8.10
2018,01,17,07,48,4.80
2018,01,17,07,49,6.40
2018,01,17,07,50,4.80
2018,01,17,07,51,6.40
2018,01,17,07,52,6.40
2018,01,17,07,53,8.10
2018,01,17,07,54,4.80
2018,01,17,07,55,1.60
2018,01,17,07,56,6.40
2018,01,17,07,57,8.10
2018,01,17,07,58,6.40
2018,01,17,07,59,8.10
2018,01,17,08,00,6.40
2018,01,17,08,01,3.20
2018,01,17,08,02,3.20
2018,01,17,08,03,3.20
2018,01,17,08,04,3.20
2018,01,17,08,05,6.40
2018,01,17,08,06,8.10
2018,01,17,08,07,11.30
2018,01,17,08,08,8.10
2018,01,17,08,09,6.40
2018,01,17,08,10,3.20
2018,01,17,08,11,1.60
2018,01,17,08,12,8.10
2018,01,17,08,13,11.30
2018,01,17,08,14,11.30
2018,01,17,08,15,9.60
2018,01,17,08,16,6.40
2018,01,17,08,18,6.40
2018,01,17,08,19,8.10
2018,01,17,08,20,8.10
2018,01,17,08,21,1.60
2018,01,17,08,22,1.60
2018,01,17,08,23,6.40
2018,01,17,08,24,6.40
2018,01,17,08,25,3.20
2018,01,17,08,26,6.40
2018,01,17,08,27,1.60
2018,01,17,08,28,6.40
2018,01,17,08,29,8.10
2018,01,17,08,30,6.40
2018,01,17,08,31,8.10
2018,01,17,08,32,8.10
2018,01,17,08,33,9.60
2018,01,17,08,34,8.10
2018,01,17,08,35,6.40
2018,01,17,08,36,6.40
2018,01,17,08,37,6.40
2018,01,17,08,38,6.40
2018,01,17,08,40,6.40
2018,01,17,08,41,6.40
2018,01,17,08,42,6.40
2018,01,17,08,43,6.40
2018,01,17,08,44,3.20
2018,01,17,08,45,4.80
2018,01,17,08,46,9.60
2018,01,17,08,47,8.10
2018,01,17,08,48,6.40
2018,01,17,08,49,6.40
2018,01,17,08,50,8.10
2018,01,17,08,51,12.90
2018,01,17,08,52,14.50
2018,01,17,08,53,11.30
2018,01,17,08,54,12.90
2018,01,17,08,55,8.10
2018,01,17,08,56,9.60
2018,01,17,08,57,9.60
2018,01,17,08,58,6.40
2018,01,17,08,59,11.30
2018,01,17,09,00,11.30
2018,01,17,09,01,4.80
2018,01,17,09,02,4.80
2018,01,17,09,03,6.40
2018,01,17,09,04,12.90
2018,01,17,09,05,14.50
2018,01,17,09,06,12.90
2018,01,17,09,07,12.90
2018,01,17,09,08,11.30
2018,01,17,09,09,9.60
2018,01,17,09,10,12.90
2018,01,17,09,11,6.40
2018,01,17,09,12,6.40
2018,01,17,09,13,9.60
2018,01,17,09,14,9.60
2018,01,17,09,15,12.90
2018,01,17,09,16,9.60
2018,01,17,09,17,9.60
2018,01,17,09,18,11.30
2018,01,17,09,19,12.90
2018,01,17,09,20,12.90
2018,01,17,09,21,12.90
2018,01,17,09,22,9.60
2018,01,17,09,23,6.40
2018,01,17,09,24,6.40
2018,01,17,09,25,4.80
2018,01,17,09,26,1.60
2018,01,17,09,27,6.40
2018,01,17,09,28,8.10
2018,01,17,09,29,8.10
2018,01,17,09,30,4.80
2018,01,17,09,31,1.60
2018,01,17,09,32,11.30
2018,01,17,09,33,11.30
2018,01,17,09,34,8.10
2018,01,17,09,35,8.10
2018,01,17,09,36,9.60
2018,01,17,09,37,6.40
2018,01,17,09,38,6.40
2018,01,17,09,39,6.40
2018,01,17,09,40,8.10
2018,01,17,09,41,9.60
2018,01,17,09,42,4.80
2018,01,17,09,43,1.60
2018,01,17,09,44,1.60
2018,01,17,09,45,6.40
2018,01,17,09,46,3.20
2018,01,17,09,47,3.20
2018,01,17,09,48,6.40
2018,01,17,09,49,12.90
2018,01,17,09,50,11.30
2018,01,17,09,51,3.20
2018,01,17,09,52,8.10
2018,01,17,09,53,11.30
2018,01,17,09,54,11.30
2018,01,17,09,55,8.10
2018,01,17,09,56,4.80
2018,01,17,09,57,8.10
2018,01,17,09,58,9.60
2018,01,17,09,59,9.60
2018,01,17,10,00,6.40
2018,01,17,10,01,4.80
2018,01,17,10,02,6.40
2018,01,17,10,03,4.80
2018,01,17,10,04,4.80
2018,01,17,10,05,1.60
2018,01,17,10,06,1.60
2018,01,17,10,07,3.20
2018,01,17,10,08,4.80
2018,01,17,10,09,1.60
2018,01,17,10,10,8.10
2018,01,17,10,11,9.60
2018,01,17,10,12,8.10
2018,01,17,10,13,1.60
2018,01,17,10,14,6.40
2018,01,17,10,15,6.40
2018,01,17,10,16,8.10
2018,01,17,10,17,4.80
2018,01,17,10,19,1.60
2018,01,17,10,22,1.60
2018,01,17,10,23,6.40
2018,01,17,10,24,9.60
2018,01,17,10,25,8.10
2018,01,17,10,26,3.20
2018,01,17,10,27,4.80
2018,01,17,10,28,1.60
2018,01,17,10,29,3.20
2018,01,17,10,30,6.40
2018,01,17,10,31,6.40
2018,01,17,10,32,4.80
2018,01,17,10,33,1.60
2018,01,17,10,34,1.60
2018,01,17,10,35,4.80
2018,01,17,10,36,6.40
2018,01,17,10,39,3.20
2018,01,17,10,40,3.20
2018,01,17,10,41,3.20
2018,01,17,10,42,1.60
2018,01,17,10,43,1.60
2018,01,17,10,45,6.40
2018,01,17,10,46,8.10
2018,01,17,10,47,6.40
2018,01,17,10,48,8.10
2018,01,17,10,49,8.10
2018,01,17,10,50,6.40
2018,01,17,10,51,6.40
2018,01,17,10,52,1.60
2018,01,17,10,53,8.10
2018,01,17,10,54,4.80
2018,01,17,10,55,4.80
2018,01,17,10,56,6.40
2018,01,17,10,57,6.40
2018,01,17,10,58,3.20
2018,01,17,10,59,6.40
2018,01,17,11,00,6.40
2018,01,17,11,01,6.40
2018,01,17,11,02,6.40
2018,01,17,11,03,4.80
2018,01,17,11,04,1.60
2018,01,17,11,05,1.60
2018,01,17,11,06,3.20
2018,01,17,11,07,9.60
2018,01,17,11,08,9.60
2018,01,17,11,09,8.10
2018,01,17,11,10,3.20
2018,01,17,11,11,4.80
2018,01,17,11,12,4.80
2018,01,17,11,13,11.30
2018,01,17,11,14,9.60
2018,01,17,11,15,11.30
2018,01,17,11,16,8.10
2018,01,17,11,17,6.40
2018,01,17,11,18,8.10
2018,01,17,11,19,8.10
2018,01,17,11,20,11.30
2018,01,17,11,21,9.60
2018,01,17,11,22,9.60
2018,01,17,11,23,12.90
2018,01,17,11,24,9.60
2018,01,17,11,25,12.90
2018,01,17,11,26,9.60
2018,01,17,11,27,12.90
2018,01,17,11,28,16.10
2018,01,17,11,29,14.50
2018,01,17,11,30,8.10
2018,01,17,11,31,11.30
2018,01,17,11,32,16.10
2018,01,17,11,33,12.90
2018,01,17,11,34,14.50
2018,01,17,11,35,16.10
2018,01,17,11,36,8.10
2018,01,17,11,37,8.10
2018,01,17,11,38,4.80
2018,01,17,11,39,14.50
2018,01,17,11,40,16.10
2018,01,17,11,41,17.70
2018,01,17,11,42,12.90
2018,01,17,11,43,14.50
2018,01,17,11,44,17.70
2018,01,17,11,45,19.30
2018,01,17,11,46,14.50
2018,01,17,11,47,9.60
2018,01,17,11,48,12.90
2018,01,17,11,49,9.60
2018,01,17,11,50,11.30
2018,01,17,11,51,9.60
2018,01,17,11,52,8.10
2018,01,17,11,53,16.10
2018,01,17,11,54,17.70
2018,01,17,11,55,14.50
2018,01,17,11,56,19.30
2018,01,17,11,57,14.50
2018,01,17,11,58,11.30
2018,01,17,11,59,12.90
2018,01,17,12,00,9.60
2018,01,17,12,01,9.60
2018,01,17,12,02,9.60
2018,01,17,12,03,8.10
2018,01,17,12,04,11.30
2018,01,17,12,05,11.30
2018,01,17,12,06,9.60
2018,01,17,12,07,9.60
2018,01,17,12,08,12.90
2018,01,17,12,09,12.90
2018,01,17,12,10,11.30
2018,01,17,12,11,9.60
2018,01,17,12,12,11.30
2018,01,17,12,13,9.60
2018,01,17,12,14,11.30
2018,01,17,12,15,1.60
2018,01,17,12,16,3.20
2018,01,17,12,17,4.80
2018,01,17,12,18,11.30
2018,01,17,12,19,14.50
2018,01,17,12,20,9.60
2018,01,17,12,21,6.40
2018,01,17,12,22,8.10
2018,01,17,12,23,9.60
2018,01,17,12,24,12.90
2018,01,17,12,25,16.10
2018,01,17,12,26,14.50
2018,01,17,12,27,14.50
2018,01,17,12,28,16.10
2018,01,17,12,29,14.50
2018,01,17,12,30,16.10
2018,01,17,12,31,14.50
2018,01,17,12,32,11.30
2018,01,17,12,33,9.60
2018,01,17,12,34,9.60
2018,01,17,12,35,9.60
2018,01,17,12,36,9.60
2018,01,17,12,37,17.70
2018,01,17,12,38,17.70
2018,01,17,12,39,16.10
2018,01,17,12,40,11.30
2018,01,17,12,41,12.90
2018,01,17,12,42,12.90
2018,01,17,12,43,12.90
2018,01,17,12,44,14.50
2018,01,17,12,45,17.70
2018,01,17,12,46,17.70
2018,01,17,12,47,14.50
2018,01,17,12,48,8.10
2018,01,17,12,49,11.30
2018,01,17,12,50,11.30
2018,01,17,12,51,11.30
2018,01,17,12,52,11.30
2018,01,17,12,53,12.90
2018,01,17,12,54,16.10
2018,01,17,12,55,16.10
2018,01,17,12,56,12.90
2018,01,17,12,57,6.40
2018,01,17,12,58,14.50
2018,01,17,12,59,14.50
2018,01,17,13,00,9.60
2018,01,17,13,01,12.90
2018,01,17,13,02,9.60
2018,01,17,13,03,4.80
2018,01,17,13,04,12.90
2018,01,17,13,05,9.60
2018,01,17,13,06,9.60
2018,01,17,13,07,9.60
2018,01,17,13,08,3.20
2018,01,17,13,09,1.60
2018,01,17,13,10,3.20
2018,01,17,13,11,4.80
2018,01,17,13,12,6.40
2018,01,17,13,13,4.80
2018,01,17,13,14,4.80
2018,01,17,13,15,4.80
2018,01,17,13,16,1.60
2018,01,17,13,19,3.20
2018,01,17,13,20,22.50
2018,01,17,13,21,17.70
2018,01,17,13,22,27.40
2018,01,17,13,23,33.80
2018,01,17,13,24,19.30
2018,01,17,13,25,29.00
2018,01,17,13,26,27.40
2018,01,17,13,27,19.30
2018,01,17,13,28,29.00
2018,01,17,13,29,35.40
2018,01,17,13,30,35.40
2018,01,17,13,31,37.00
2018,01,17,13,32,43.50
2018,01,17,13,33,29.00
2018,01,17,13,34,27.40
2018,01,17,13,35,37.00
2018,01,17,13,36,48.30
2018,01,17,13,37,32.20
2018,01,17,13,38,29.00
2018,01,17,13,39,24.20
2018,01,17,13,40,27.40
2018,01,17,13,41,22.50
2018,01,17,13,42,25.70
2018,01,17,13,43,29.00
2018,01,17,13,44,33.80
2018,01,17,13,45,37.00
2018,01,17,13,46,30.60
2018,01,17,13,47,25.70
2018,01,17,13,48,24.20
2018,01,17,13,49,30.60
2018,01,17,13,50,32.20
2018,01,17,13,51,38.60
2018,01,17,13,52,29.00
2018,01,17,13,53,35.40
2018,01,17,13,54,38.60
2018,01,17,13,55,37.00
2018,01,17,13,56,32.20
2018,01,17,13,57,45.10
2018,01,17,13,58,45.10
2018,01,17,13,59,41.80
2018,01,17,14,00,32.20
2018,01,17,14,01,37.00
2018,01,17,14,02,29.00
2018,01,17,14,03,40.20
2018,01,17,14,04,29.00
2018,01,17,14,05,27.40
2018,01,17,14,06,37.00
2018,01,17,14,07,29.00
2018,01,17,14,08,40.20
2018,01,17,14,09,22.50
2018,01,17,14,10,24.20
2018,01,17,14,11,35.40
2018,01,17,14,12,22.50
2018,01,17,14,13,25.70
2018,01,17,14,14,35.40
2018,01,17,14,15,35.40
2018,01,17,14,16,22.50
2018,01,17,14,17,33.80
2018,01,17,14,18,24.20
2018,01,17,14,19,20.90
2018,01,17,14,20,16.10
2018,01,17,14,21,22.50
2018,01,17,14,22,24.20
2018,01,17,14,23,29.00
2018,01,17,14,24,25.70
2018,01,17,14,25,35.40
2018,01,17,14,26,27.40
2018,01,17,14,27,20.90
2018,01,17,14,28,24.20
2018,01,17,14,29,33.80
2018,01,17,14,30,29.00
2018,01,17,14,31,33.80
2018,01,17,14,32,25.70
2018,01,17,14,33,45.10
2018,01,17,14,34,38.60
2018,01,17,14,35,35.40
2018,01,17,14,36,30.60
2018,01,17,14,37,22.50
2018,01,17,14,38,24.20
2018,01,17,14,39,24.20
2018,01,17,14,40,29.00
2018,01,17,14,41,30.60
2018,01,17,14,42,25.70
2018,01,17,14,43,24.20
2018,01,17,14,44,33.80
2018,01,17,14,45,27.40
2018,01,17,14,46,24.20
2018,01,17,14,47,24.20
2018,01,17,14,48,32.20
2018,01,17,14,49,19.30
2018,01,17,14,50,37.00
2018,01,17,14,51,35.40
2018,01,17,14,52,30.60
2018,01,17,14,53,27.40
2018,01,17,14,54,32.20
2018,01,17,14,55,38.60
2018,01,17,14,56,27.40
2018,01,17,14,57,27.40
2018,01,17,14,58,30.60
2018,01,17,14,59,35.40
2018,01,17,15,00,41.80
2018,01,17,15,01,33.80
2018,01,17,15,02,32.20
2018,01,17,15,03,24.20
2018,01,17,15,04,45.10
2018,01,17,15,05,25.70
2018,01,17,15,06,22.50
2018,01,17,15,07,17.70
2018,01,17,15,08,16.10
2018,01,17,15,09,24.20
2018,01,17,15,10,27.40
2018,01,17,15,11,24.20
2018,01,17,15,12,37.00
2018,01,17,15,13,30.60
2018,01,17,15,14,20.90
2018,01,17,15,15,16.10
2018,01,17,15,16,20.90
2018,01,17,15,17,24.20
2018,01,17,15,18,20.90
2018,01,17,15,19,16.10
2018,01,17,15,20,20.90
2018,01,17,15,21,14.50
2018,01,17,15,22,22.50
2018,01,17,15,23,25.70
2018,01,17,15,24,40.20
2018,01,17,15,25,40.20
2018,01,17,15,26,30.60
2018,01,17,15,27,29.00
2018,01,17,15,28,33.80
2018,01,17,15,29,29.00
2018,01,17,15,30,20.90
2018,01,17,15,31,27.40
2018,01,17,15,32,29.00
2018,01,17,15,33,32.20
2018,01,17,15,34,30.60
2018,01,17,15,35,35.40
2018,01,17,15,36,41.80
2018,01,17,15,37,40.20
2018,01,17,15,38,38.60
2018,01,17,15,39,38.60
2018,01,17,15,40,41.80
2018,01,17,15,41,56.30
2018,01,17,15,42,38.60
2018,01,17,15,43,45.10
2018,01,17,15,44,41.80
2018,01,17,15,45,37.00
2018,01,17,15,46,54.70
2018,01,17,15,47,32.20
2018,01,17,15,48,54.70
2018,01,17,15,49,38.60
2018,01,17,15,50,35.40
2018,01,17,15,51,35.40
2018,01,17,15,52,30.60
2018,01,17,15,53,38.60
2018,01,17,15,54,43.50
2018,01,17,15,55,35.40
2018,01,17,15,56,45.10
2018,01,17,15,57,38.60
2018,01,17,15,58,40.20
2018,01,17,15,59,38.60
2018,01,17,16,00,38.60
2018,01,17,16,01,33.80
2018,01,17,16,02,22.50
2018,01,17,16,03,30.60
2018,01,17,16,04,49.90
2018,01,17,16,05,53.10
2018,01,17,16,06,33.80
2018,01,17,16,07,45.10
2018,01,17,16,08,53.10
2018,01,17,16,09,41.80
2018,01,17,16,10,43.50
2018,01,17,16,11,40.20
2018,01,17,16,12,38.60
2018,01,17,16,13,43.50
2018,01,17,16,14,75.60
2018,01,17,16,15,32.20
2018,01,17,16,16,61.20
2018,01,17,16,17,37.00
2018,01,17,16,18,32.20
2018,01,17,16,19,32.20
2018,01,17,16,20,27.40
2018,01,17,16,21,41.80
2018,01,17,16,22,38.60
2018,01,17,16,23,45.10
2018,01,17,16,24,48.30
2018,01,17,16,25,38.60
2018,01,17,16,26,37.00
2018,01,17,16,27,37.00
2018,01,17,16,28,30.60
2018,01,17,16,29,27.40
2018,01,17,16,30,38.60
2018,01,17,16,31,38.60
2018,01,17,16,32,35.40
2018,01,17,16,33,38.60
2018,01,17,16,34,35.40
2018,01,17,16,35,27.40
2018,01,17,16,36,25.70
2018,01,17,16,37,25.70
2018,01,17,16,38,29.00
2018,01,17,16,39,40.20
2018,01,17,16,40,29.00
2018,01,17,16,41,43.50
2018,01,17,16,42,33.80
2018,01,17,16,43,24.20
2018,01,17,16,44,27.40
2018,01,17,16,45,35.40
2018,01,17,16,46,37.00
2018,01,17,16,47,37.00
2018,01,17,16,48,29.00
2018,01,17,16,49,33.80
2018,01,17,16,50,35.40
2018,01,17,16,51,25.70
2018,01,17,16,52,24.20
2018,01,17,16,53,32.20
2018,01,17,16,54,27.40
2018,01,17,16,55,33.80
2018,01,17,16,56,43.50
2018,01,17,16,57,38.60
2018,01,17,16,58,38.60
2018,01,17,16,59,30.60
2018,01,17,17,00,38.60
2018,01,17,17,01,33.80
2018,01,17,17,02,35.40
2018,01,17,17,03,20.90
2018,01,17,17,04,20.90
2018,01,17,17,05,30.60
2018,01,17,17,06,27.40
2018,01,17,17,07,22.50
2018,01,17,17,08,17.70
2018,01,17,17,09,24.20
2018,01,17,17,10,19.30
2018,01,17,17,11,22.50
2018,01,17,17,12,19.30
2018,01,17,17,13,19.30
2018,01,17,17,14,17.70
2018,01,17,17,15,17.70
2018,01,17,17,16,12.90
2018,01,17,17,17,12.90
2018,01,17,17,18,27.40
2018,01,17,17,19,22.50
2018,01,17,17,20,29.00
2018,01,17,17,21,35.40
2018,01,17,17,22,38.60
2018,01,17,17,23,37.00
2018,01,17,17,24,24.20
2018,01,17,17,25,30.60
2018,01,17,17,26,32.20
2018,01,17,17,27,37.00
2018,01,17,17,28,35.40
2018,01,17,17,29,35.40
2018,01,17,17,30,43.50
2018,01,17,17,31,25.70
2018,01,17,17,32,27.40
2018,01,17,17,33,22.50
2018,01,17,17,34,20.90
2018,01,17,17,35,19.30
2018,01,17,17,36,22.50
2018,01,17,17,37,24.20
2018,01,17,17,38,19.30
2018,01,17,17,39,17.70
2018,01,17,17,40,22.50
2018,01,17,17,41,12.90
2018,01,17,17,42,16.10
2018,01,17,17,43,17.70
2018,01,17,17,44,16.10
2018,01,17,17,45,22.50
2018,01,17,17,46,22.50
2018,01,17,17,47,19.30
2018,01,17,17,48,16.10
2018,01,17,17,49,14.50
2018,01,17,17,50,12.90
2018,01,17,17,51,16.10
2018,01,17,17,52,16.10
2018,01,17,17,53,14.50
2018,01,17,17,54,14.50
2018,01,17,17,55,16.10
2018,01,17,17,56,22.50
2018,01,17,17,57,20.90
2018,01,17,17,58,19.30
2018,01,17,17,59,12.90
2018,01,17,18,00,16.10
2018,01,17,18,01,20.90
2018,01,17,18,02,19.30
2018,01,17,18,03,19.30
2018,01,17,18,04,22.50
2018,01,17,18,05,19.30
2018,01,17,18,06,22.50
2018,01,17,18,07,19.30
2018,01,17,18,08,16.10
2018,01,17,18,09,22.50
2018,01,17,18,10,20.90
2018,01,17,18,11,29.00
2018,01,17,18,12,17.70
2018,01,17,18,13,22.50
2018,01,17,18,14,20.90
2018,01,17,18,15,22.50
2018,01,17,18,16,20.90
2018,01,17,18,17,16.10
2018,01,17,18,18,20.90
2018,01,17,18,19,17.70
2018,01,17,18,20,17.70
2018,01,17,18,21,22.50
2018,01,17,18,22,27.40
2018,01,17,18,23,30.60
2018,01,17,18,24,27.40
2018,01,17,18,25,22.50
2018,01,17,18,26,24.20
2018,01,17,18,27,25.70
2018,01,17,18,28,27.40
2018,01,17,18,29,25.70
2018,01,17,18,30,20.90
2018,01,17,18,31,25.70
2018,01,17,18,32,17.70
2018,01,17,18,33,27.40